Flag for Germany Weather past 2 weeks in Garmisch-Partenkirchen, Bavaria, Germany

Now
48 °F

Scattered clouds.


Feels Like: 45 °F
Forecast: 37 / 67 °F
Wind: 8 mph from Southeast

Location: Innsbruck-Flughafen


UV Index: 0 (Low)

Visibility: N/A


Pressure: 29.83 "Hg

Humidity: 66%

Dew point: 37 °F

Location of Garmisch-PartenkirchenLocation

Historic Weather in Garmisch-Partenkirchen

°F

Garmisch-Partenkirchen temperature yesterday

Maximum temperature yesterday: 52 °F (at 2:50 PM)
Minimum temperature yesterday: 32 °F (at 5:50 AM)
Average temperature yesterday: 42 °F

Past Weeks' High & Low Weather Summary

 TemperatureHumidityPressure
High72 °F (Apr 7, 3:50 PM)100% (Apr 7, 5:20 AM)30.33 "Hg (Apr 7, 5:20 AM)
Low32 °F (Apr 18, 5:50 AM)26% (Apr 14, 3:50 PM)29.65 "Hg (Apr 4, 3:20 PM)
Average49 °F72%30.06 "Hg
* Reported Apr 4 11:20 AM — Apr 19 11:50 AM, Garmisch-Partenkirchen, Weather by CustomWeather, © 2014

Note: Actual official high and low records may vary slightly from our data, if they occured in-between our weather recording intervals... More about our weather records

Advertising

Historic Weather Conditions — Data for Previous 24 hours

 ConditionsComfort  
Time TempWeatherWind HumidityBarometerVisibility
11:50 AM
Apr 19
45 °FScattered clouds.3 mph71%29.83 "HgN/A
11:20 AM45 °FScattered clouds.5 mph71%29.83 "HgN/A
10:50 AM43 °FScattered clouds.8 mph81%29.83 "HgN/A
10:20 AM43 °FScattered clouds.10 mph76%29.83 "HgN/A
9:50 AM41 °FBroken clouds.6 mph81%29.83 "HgN/A
9:20 AM39 °FBroken clouds.9 mph87%29.83 "HgN/A
8:50 AM39 °FBroken clouds.8 mph87%29.83 "HgN/A
8:20 AM37 °FBroken clouds.8 mph93%29.83 "HgN/A
7:50 AM37 °FPartly sunny.7 mph93%29.83 "HgN/A
7:20 AM36 °FBroken clouds.6 mph93%29.83 "HgN/A
6:50 AM36 °FLight rain. Partly cloudy.5 mph93%29.83 "Hg6 mi
6:20 AM34 °FLight rain. Partly cloudy.2 mph100%29.83 "Hg4 mi
5:50 AM34 °FRain. Partly cloudy.1 mph93%29.83 "Hg4 mi
5:20 AM34 °FRain. Partly cloudy.No wind100%29.83 "Hg4 mi
4:50 AM34 °FRain. Partly cloudy.1 mph100%29.83 "Hg4 mi
4:20 AM34 °FRain. Partly cloudy.2 mph100%29.83 "Hg4 mi
3:50 AM34 °FRain. Partly cloudy.1 mph100%29.86 "Hg4 mi
3:20 AM34 °FLight freezing rain. Partly cloudy.2 mph100%29.86 "Hg5 mi
2:50 AM34 °FFreezing rain. Passing clouds.1 mph100%29.86 "Hg4 mi
2:20 AM34 °FFreezing rain. Passing clouds.1 mph100%29.86 "Hg3 mi
1:50 AM36 °FFreezing rain. Passing clouds.1 mph93%29.86 "Hg4 mi
1:20 AM36 °FLight freezing rain. Passing clouds.1 mph93%29.89 "Hg4 mi
12:50 AM36 °FFreezing rain. Passing clouds.1 mph93%29.86 "Hg6 mi
12:20 AM36 °FFreezing rain. Passing clouds.1 mph93%29.89 "Hg4 mi
11:50 PM
Apr 18
37 °FFreezing rain. Passing clouds.1 mph87%29.89 "Hg3 mi
11:20 PM37 °FFreezing rain. Passing clouds.3 mph93%29.89 "Hg2 mi
10:50 PM39 °FRain. Partly cloudy.3 mph87%29.86 "Hg4 mi
10:20 PM39 °FRain. Partly cloudy.6 mph87%29.86 "Hg6 mi
9:50 PM39 °FRain. Partly cloudy.3 mph87%29.83 "Hg4 mi
9:20 PM41 °FRain. Partly cloudy.8 mph87%29.83 "Hg5 mi
8:50 PM41 °FRain. Broken clouds.9 mph87%29.83 "Hg6 mi
8:20 PM43 °FRain. Broken clouds.8 mph87%29.80 "HgN/A
7:50 PM45 °FRain. Broken clouds.7 mph87%29.80 "HgN/A
7:20 PM45 °FLight rain. Broken clouds.7 mph87%29.77 "HgN/A
6:50 PM46 °FLight rain. Broken clouds.8 mph76%29.77 "HgN/A
6:20 PM46 °FLight rain. Broken clouds.8 mph76%29.77 "HgN/A
5:50 PM48 °FLight rain. Broken clouds.10 mph66%29.77 "HgN/A
5:20 PM48 °FBroken clouds.13 mph62%29.77 "HgN/A
4:50 PM50 °FLight rain. Broken clouds.13 mph58%29.77 "HgN/A
4:20 PM52 °FLight rain. Broken clouds.5 mph54%29.77 "HgN/A
3:50 PM52 °FLight rain. Broken clouds.5 mph54%29.77 "HgN/A
3:20 PM52 °FBroken clouds.3 mph47%29.77 "HgN/A
2:50 PM52 °FBroken clouds.2 mph47%29.77 "HgN/A
2:20 PM50 °FBroken clouds.2 mph47%29.77 "HgN/A
1:50 PM50 °FBroken clouds.3 mph50%29.80 "HgN/A
1:20 PM50 °FBroken clouds.3 mph50%29.77 "HgN/A
Weather by CustomWeather, © 2014

See weather overview